Location: *
(43.4667°N, 11.6833°E)
Time: 22:35:35
(UTC+00:00)

Cosmos 1242 Rocket - Pass Details

Date: 19 July 2019
Orbit: 449 x 489 km, 81.2° (Epoch: 24 August)

Event Time Altitude Azimuth Distance (km) Brightness Sun altitude
Rises 19:56:55 0° 197° (SSW) 2,532 6.0 -10.7°
Reaches altitude 10° 19:59:01 10° 201° (SSW) 1,662 5.1 -11.0°
Maximum altitude 20:02:37 59° 282° (WNW) 568 3.2 -11.5°
Drops below altitude 10° 20:06:17 10° 3° (N) 1,688 5.9 -11.9°
Sets 20:08:26 0° 7° (N) 2,576 6.8 -12.2°
